CW7972 Weather Reports


time (UTC)temp
C
wind
direction
speed
KPH
gust
KPH
rain 1hr
cm
rain 24hr
cm
rain mn
cm
humidity
%
barometer
mb
20260506051005 17 261 6.4 16.1 0.00 0.00 0.00 77 1027.5
20260506050504 17 265 8.0 16.1 0.00 0.00 0.00 77 1027.5
20260506050218 17 267 6.4 16.1 0.00 0.00 0.00 76 1027.5
20260506045004 18 258 8.0 20.9 0.00 0.00 0.00 75 1027.5
20260506044504 18 263 8.0 20.9 0.00 0.00 0.00 74 1027.5
20260506044004 18 265 9.7 19.3 0.00 0.00 0.00 73 1027.5
20260506043504 18 264 8.0 19.3 0.00 0.00 0.00 73 1027.5
20260506043004 18 261 8.0 19.3 0.00 0.00 0.00 72 1027.5
20260506042504 18 261 8.0 20.9 0.00 0.00 0.00 71 1027.5
20260506042218 18 261 8.0 20.9 0.00 0.00 0.00 70 1027.5
20260506041504 18 268 8.0 19.3 0.00 0.00 0.00 70 1027.5
20260506041004 19 269 9.7 20.9 0.00 0.00 0.00 70 1027.5
20260506040504 19 269 9.7 20.9 0.00 0.00 0.00 69 1027.5
20260506040004 19 263 11.3 22.5 0.00 0.00 0.00 68 1027.5
20260506035504 20 260 9.7 22.5 0.00 0.00 0.00 66 1027.5
20260506035217 20 260 9.7 22.5 0.00 0.00 0.00 65 1027.5
20260506034504 21 263 8.0 22.5 0.00 0.00 0.00 65 1027.5
20260506034004 20 262 9.7 20.9 0.00 0.00 0.00 65 1027.5
20260506033504 20 261 9.7 20.9 0.00 0.00 0.00 64 1027.5
20260506033217 20 266 9.7 20.9 0.00 0.00 0.00 65 1027.5
20260506032504 20 272 9.7 25.7 0.00 0.00 0.00 67 1027.5
20260506032217 20 274 9.7 25.7 0.00 0.00 0.00 67 1027.5
20260506031504 21 276 11.3 20.9 0.00 0.00 0.00 65 1027.5
20260506031004 20 272 9.7 27.4 0.00 0.00 0.00 67 1027.5
20260506030504 20 265 9.7 27.4 0.00 0.00 0.00 66 1027.4
20260506030004 20 264 11.3 24.1 0.00 0.00 0.00 66 1027.4
20260506025504 20 271 11.3 22.5 0.00 0.00 0.00 66 1027.4
20260506025004 20 274 8.0 22.5 0.00 0.00 0.00 66 1027.4
20260506024504 20 271 8.0 22.5 0.00 0.00 0.00 67 1027.4
20260506024219 20 273 8.0 20.9 0.00 0.00 0.00 68 1027.4
20260506023504 20 267 9.7 19.3 0.00 0.00 0.00 67 1027.5
20260506023004 20 263 8.0 19.3 0.00 0.00 0.00 68 1027.5
20260506022720 20 266 8.0 19.3 0.00 0.00 0.00 68 1027.5
20260506022004 20 274 8.0 17.7 0.00 0.00 0.00 69 1027.5
20260506021718 20 279 8.0 17.7 0.00 0.00 0.00 69 1027.5
20260506021004 19 279 11.3 27.4 0.00 0.00 0.00 69 1027.6
20260506020718 19 275 9.7 27.4 0.00 0.00 0.00 68 1027.6
20260506020004 20 271 11.3 29.0 0.00 0.00 0.00 68 1027.6
20260506015504 20 267 12.9 29.0 0.00 0.00 0.00 67 1027.7
20260506015004 20 267 12.9 30.6 0.00 0.00 0.00 67 1027.7
20260506014504 20 271 12.9 30.6 0.00 0.00 0.00 67 1027.7
20260506014004 20 271 14.5 29.0 0.00 0.00 0.00 68 1027.7
20260506013504 20 264 12.9 30.6 0.00 0.00 0.00 67 1027.7
20260506013004 20 261 11.3 30.6 0.00 0.00 0.00 67 1027.7
20260506012718 20 266 11.3 22.5 0.00 0.00 0.00 67 1027.7
20260506012004 20 268 11.3 22.5 0.00 0.00 0.00 67 1027.8
20260506011504 20 271 11.3 22.5 0.00 0.00 0.00 66 1027.8
20260506011004 20 266 11.3 29.0 0.00 0.00 0.00 65 1027.8
20260506010504 20 266 9.7 29.0 0.00 0.00 0.00 64 1027.9
20260506010004 20 273 9.7 20.9 0.00 0.00 0.00 67 1028.0
20260506005504 20 270 9.7 20.9 0.00 0.00 0.00 67 1028.1
20260506005004 20 267 9.7 24.1 0.00 0.00 0.00 67 1028.2
20260506004504 19 270 9.7 24.1 0.00 0.00 0.00 68 1028.2
20260506004004 19 272 11.3 27.4 0.00 0.00 0.00 69 1028.3
20260506003504 19 265 11.3 29.0 0.00 0.00 0.00 67 1028.4
20260506003004 20 268 9.7 29.0 0.00 0.00 0.00 67 1028.4
20260506002504 20 277 9.7 20.9 0.00 0.00 0.00 68 1028.5
20260506002004 20 278 9.7 22.5 0.00 0.00 0.00 67 1028.5
20260506001719 20 280 8.0 22.5 0.00 0.00 0.00 67 1028.6
20260506001005 20 274 6.4 24.1 0.00 0.00 0.00 68 1028.7
20260506000504 19 276 6.4 24.1 0.00 0.00 0.00 69 1028.7
20260506000004 19 278 6.4 17.7 0.00 0.00 0.00 69 1028.8
20260505235504 19 278 9.7 27.4 0.00 0.00 0.00 69 1028.8
20260505235218 19 277 9.7 27.4 0.00 0.00 0.00 69 1028.9
20260505234719 18 274 9.7 27.4 0.00 0.00 0.00 69 1029.0
20260505234004 18 282 6.4 22.5 0.00 0.00 0.00 69 1029.0
20260505233504 18 282 6.4 20.9 0.00 0.00 0.00 70 1029.0
20260505233004 18 275 6.4 20.9 0.00 0.00 0.00 70 1029.0
20260505232504 18 273 6.4 20.9 0.00 0.00 0.00 70 1029.0
20260505232004 18 286 4.8 17.7 0.00 0.00 0.00 71 1029.0
20260505231719 18 294 4.8 17.7 0.00 0.00 0.00 72 1029.0
20260505231004 18 285 4.8 20.9 0.00 0.00 0.00 71 1029.0
20260505230504 18 291 3.2 16.1 0.00 0.00 0.00 71 1029.1
20260505230004 18 301 3.2 16.1 0.00 0.00 0.00 71 1029.1
20260505225504 18 288 4.8 11.3 0.00 0.00 0.00 71 1029.2
20260505225004 17 290 4.8 14.5 0.00 0.00 0.00 72 1029.2
20260505224504 17 308 3.2 14.5 0.00 0.00 0.00 72 1029.2
20260505224004 17 319 3.2 9.7 0.00 0.00 0.00 73 1029.3
20260505223504 17 312 4.8 17.7 0.00 0.00 0.00 75 1029.3
20260505223004 17 308 4.8 17.7 0.00 0.00 0.00 74 1029.4
20260505222504 17 310 4.8 14.5 0.00 0.00 0.00 75 1029.4
20260505222004 17 310 4.8 14.5 0.00 0.00 0.00 75 1029.4
20260505221504 17 303 4.8 12.9 0.00 0.00 0.00 76 1029.5
20260505221004 17 300 4.8 12.9 0.00 0.00 0.00 76 1029.5
20260505220504 16 306 4.8 9.7 0.00 0.00 0.00 78 1029.6
20260505220217 16 311 3.2 9.7 0.00 0.00 0.00 78 1029.6
20260505215504 16 307 3.2 11.3 0.00 0.00 0.00 80 1029.6
20260505215217 16 306 3.2 11.3 0.00 0.00 0.00 81 1029.6
20260505214504 15 306 3.2 8.0 0.00 0.00 0.00 82 1029.7
20260505214217 15 307 3.2 8.0 0.00 0.00 0.00 82 1029.7
20260505213504 15 312 1.6 8.0 0.00 0.00 0.00 84 1029.8
20260505213004 15 309 1.6 8.0 0.00 0.00 0.00 84 1029.9
20260505212504 15 312 1.6 8.0 0.00 0.00 0.00 84 1029.9
20260505212004 14 315 4.8 8.0 0.00 0.00 0.00 84 1030.0
20260505211504 14 310 3.2 9.7 0.00 0.00 0.00 85 1030.0
20260505211005 13 303 1.6 9.7 0.00 0.00 0.00 87 1030.0
20260505210504 13 283 1.6 4.8 0.00 0.00 0.00 89 1030.0
20260505210004 12 0 0.0 3.2 0.00 0.00 0.00 90 1030.0
20260505205505 12 0 0.0 0.0 0.00 0.00 0.00 90 1030.1
20260505205004 12 0 0.0 0.0 0.00 0.00 0.00 90 1030.1
20260505204504 12 0 0.0 0.0 0.00 0.00 0.00 90 1030.0
20260505204004 11 0 0.0 0.0 0.00 0.00 0.00 90 1030.0
20260505203718 11 0 0.0 0.0 0.00 0.00 0.00 90 1030.0
20260505203003 11 0 0.0 0.0 0.00 0.00 0.00 90 1030.0
20260505202504 11 0 0.0 0.0 0.00 0.00 0.00 90 1030.0
20260505202004 11 0 0.0 0.0 0.00 0.00 0.00 90 1030.0
20260505201504 11 0 0.0 0.0 0.00 0.00 0.00 90 1030.0
20260505201004 11 0 0.0 0.0 0.00 0.00 0.00 90 1029.9
20260505200504 11 0 0.0 0.0 0.00 0.00 0.00 90 1029.9
20260505200004 11 0 0.0 0.0 0.00 0.00 0.00 90 1029.9
20260505195504 11 0 0.0 0.0 0.00 0.00 0.00 90 1029.9
20260505195004 11 0 0.0 0.0 0.00 0.00 0.00 90 1029.9
20260505194504 11 0 0.0 0.0 0.00 0.00 0.00 90 1029.9
20260505194004 11 0 0.0 0.0 0.00 0.00 0.00 90 1029.8
20260505193718 11 0 0.0 0.0 0.00 0.00 0.00 90 1029.8
20260505193004 10 0 0.0 0.0 0.00 0.00 0.00 90 1029.8
20260505192504 10 0 0.0 0.0 0.00 0.00 0.00 90 1029.7
20260505192004 10 0 0.0 0.0 0.00 0.00 0.00 90 1029.7
20260505191503 10 0 0.0 0.0 0.00 0.00 0.00 90 1029.7
20260505191004 10 0 0.0 0.0 0.00 0.00 0.00 90 1029.7
20260505190504 10 0 0.0 0.0 0.00 0.00 0.00 90 1029.7
20260505190004 10 0 0.0 0.0 0.00 0.00 0.00 90 1029.7
20260505185504 10 0 0.0 0.0 0.00 0.00 0.00 90 1029.7
20260505185004 10 0 0.0 1.6 0.00 0.00 0.00 90 1029.7
20260505184504 10 247 0.0 3.2 0.00 0.00 0.00 90 1029.7
20260505184004 10 247 0.0 3.2 0.00 0.00 0.00 90 1029.7
20260505183504 10 247 0.0 3.2 0.00 0.00 0.00 90 1029.7
20260505183004 10 0 0.0 1.6 0.00 0.00 0.00 89 1029.7
20260505182504 10 0 0.0 0.0 0.00 0.00 0.00 88 1029.7
20260505182004 10 0 0.0 0.0 0.00 0.00 0.00 88 1029.7
20260505181504 10 0 0.0 0.0 0.00 0.00 0.00 88 1029.7
20260505181220 10 0 0.0 0.0 0.00 0.00 0.00 87 1029.8
20260505180719 10 0 0.0 0.0 0.00 0.00 0.00 87 1029.8
20260505180004 10 0 0.0 0.0 0.00 0.00 0.00 87 1029.8
20260505175503 10 0 0.0 0.0 0.00 0.00 0.00 87 1029.8
20260505175004 10 0 0.0 0.0 0.00 0.00 0.00 87 1029.8
20260505174504 11 0 0.0 0.0 0.00 0.00 0.00 87 1029.8
20260505174004 11 0 0.0 0.0 0.00 0.00 0.00 87 1029.8
20260505173504 11 0 0.0 0.0 0.00 0.00 0.00 87 1029.9
20260505173218 11 0 0.0 0.0 0.00 0.00 0.00 87 1029.9
20260505172504 11 0 0.0 0.0 0.00 0.00 0.00 86 1029.9
20260505172004 11 0 0.0 0.0 0.00 0.00 0.00 86 1030.0
20260505171504 11 0 0.0 0.0 0.00 0.00 0.00 86 1030.0
20260505171004 11 247 0.0 3.2 0.00 0.00 0.00 86 1030.1
20260505170504 11 247 1.6 4.8 0.00 0.00 0.00 86 1030.1
20260505170004 11 247 0.0 4.8 0.00 0.00 0.00 86 1030.1
20260505165504 11 247 0.0 3.2 0.00 0.00 0.00 86 1030.1
20260505165004 11 247 0.0 3.2 0.00 0.00 0.00 86 1030.1
20260505164719 11 247 0.0 3.2 0.00 0.00 0.00 86 1030.1
20260505164004 11 247 0.0 3.2 0.00 0.00 0.00 86 1030.1
20260505163718 11 247 1.6 3.2 0.00 0.00 0.00 86 1030.1
20260505163217 11 251 1.6 4.8 0.00 0.00 0.00 86 1030.1
20260505162718 11 278 1.6 4.8 0.00 0.00 0.00 86 1030.1
20260505162217 11 306 0.0 6.4 0.00 0.00 0.00 87 1030.1
20260505161504 11 0 0.0 1.6 0.00 0.00 0.00 87 1030.1
20260505161004 11 0 0.0 0.0 0.00 0.00 0.00 87 1030.1
20260505160504 11 0 0.0 0.0 0.00 0.00 0.00 87 1030.1
20260505153004 11 289 1.6 6.4 0.00 0.00 0.00 88 1030.3
20260505152505 11 290 1.6 6.4 0.00 0.00 0.00 88 1030.3
20260505152004 11 294 0.0 6.4 0.00 0.00 0.00 89 1030.3
20260505151504 11 0 0.0 3.2 0.00 0.00 0.00 89 1030.3
20260505151219 11 0 0.0 1.6 0.00 0.00 0.00 89 1030.3
20260505150504 10 0 0.0 0.0 0.00 0.00 0.00 89 1030.4
20260505140504 10 0 0.0 1.6 0.00 0.00 0.00 89 1031.2
20260505125004 10 0 0.0 0.0 0.00 0.00 0.00 89 1031.8
20260505124504 9 0 0.0 0.0 0.00 0.00 0.00 89 1031.8
20260505124004 9 0 0.0 1.6 0.00 0.00 0.00 90 1031.9
20260505123719 9 0 0.0 1.6 0.00 0.00 0.00 90 1031.9
20260505123004 9 0 0.0 1.6 0.00 0.00 0.00 90 1031.9
20260505122504 9 0 0.0 1.6 0.00 0.00 0.00 90 1031.9
20260505122004 9 0 0.0 0.0 0.00 0.00 0.00 90 1032.0
20260505121719 9 0 0.0 0.0 0.00 0.00 0.00 90 1032.0
20260505121004 8 0 0.0 0.0 0.00 0.00 0.00 90 1032.0
20260505120504 8 0 0.0 0.0 0.00 0.00 0.00 90 1032.0
20260505120005 8 0 0.0 0.0 0.00 0.00 0.00 90 1032.1
20260505115719 8 0 0.0 0.0 0.00 0.00 0.00 90 1032.1
20260505115004 8 0 0.0 0.0 0.00 0.00 0.00 90 1032.1
20260505114504 8 0 0.0 1.6 0.00 0.00 0.00 90 1032.1
20260505114004 8 0 0.0 1.6 0.00 0.00 0.00 90 1032.1
20260505113719 8 0 0.0 1.6 0.00 0.00 0.00 90 1032.2
20260505113004 8 0 0.0 1.6 0.00 0.00 0.00 90 1032.2
20260505112718 8 0 0.0 1.6 0.00 0.00 0.00 90 1032.3
20260505112004 8 0 0.0 1.6 0.00 0.00 0.00 90 1032.4
20260505111504 7 0 0.0 1.6 0.00 0.00 0.00 90 1032.4
20260505111005 7 0 0.0 1.6 0.00 0.00 0.00 90 1032.5
20260505110504 7 0 0.0 0.0 0.00 0.00 0.00 90 1032.5
20260505102004 7 0 0.0 0.0 0.00 0.00 0.00 89 1032.9
20260505101504 7 0 0.0 0.0 0.00 0.00 0.00 88 1032.9
20260505101004 7 0 0.0 0.0 0.00 0.00 0.00 88 1032.9
20260505100504 7 0 0.0 0.0 0.00 0.00 0.00 88 1032.9
20260505100004 7 0 0.0 0.0 0.00 0.00 0.00 88 1032.9
20260505095504 7 0 0.0 0.0 0.00 0.00 0.00 88 1032.9
20260505095004 7 0 0.0 0.0 0.00 0.00 0.00 88 1032.9
20260505094504 7 0 0.0 0.0 0.00 0.00 0.00 88 1032.9
20260505094219 7 0 0.0 0.0 0.00 0.00 0.00 88 1032.9
20260505093504 7 0 0.0 0.0 0.00 0.00 0.00 88 1032.8
20260505093004 7 0 0.0 0.0 0.00 0.00 0.00 88 1032.8
20260505092720 7 0 0.0 0.0 0.00 0.00 0.00 88 1032.8
20260505092004 8 0 0.0 0.0 0.00 0.00 0.00 88 1032.7
20260505091717 8 0 0.0 0.0 0.00 0.00 0.00 88 1032.7
20260505091218 8 0 0.0 0.0 0.00 0.00 0.00 88 1032.7
20260505090504 8 0 0.0 0.0 0.00 0.00 0.00 87 1032.7
20260505090004 8 0 0.0 0.0 0.00 0.00 0.00 87 1032.7
20260505085504 8 0 0.0 0.0 0.00 0.00 0.00 87 1032.7
20260505085004 8 0 0.0 0.0 0.00 0.00 0.00 87 1032.7
20260505084504 8 0 0.0 0.0 0.00 0.00 0.00 86 1032.7
20260505084004 8 0 0.0 0.0 0.00 0.00 0.00 86 1032.8
20260505083504 8 0 0.0 0.0 0.00 0.00 0.00 86 1032.8
20260505083005 8 0 0.0 0.0 0.00 0.00 0.00 86 1032.8
20260505082504 8 0 0.0 0.0 0.00 0.00 0.00 86 1032.8
20260505082004 8 0 0.0 0.0 0.00 0.00 0.00 85 1032.9
20260505081504 8 0 0.0 0.0 0.00 0.00 0.00 85 1032.9
20260505081218 8 0 0.0 0.0 0.00 0.00 0.00 85 1032.9
20260505080504 9 0 0.0 0.0 0.00 0.00 0.00 84 1032.9
20260505080218 9 0 0.0 0.0 0.00 0.00 0.00 84 1032.9
20260505075504 9 0 0.0 0.0 0.00 0.00 0.00 84 1033.0
20260505075004 9 0 0.0 0.0 0.00 0.00 0.00 84 1033.0
20260505074504 10 0 0.0 0.0 0.00 0.00 0.00 83 1033.0
20260505074004 10 0 0.0 0.0 0.00 0.00 0.00 84 1033.0
20260505073504 10 0 0.0 0.0 0.00 0.00 0.00 83 1033.0
20260505073218 10 0 0.0 1.6 0.00 0.00 0.00 82 1033.0
20260505072504 10 0 0.0 1.6 0.00 0.00 0.00 81 1033.0
20260505072004 10 0 0.0 0.0 0.00 0.00 0.00 81 1033.0
20260505071504 10 0 0.0 0.0 0.00 0.00 0.00 80 1032.9
20260505071004 10 0 0.0 0.0 0.00 0.00 0.00 80 1032.9
20260505070719 10 0 0.0 0.0 0.00 0.00 0.00 79 1032.9
20260505070004 11 0 0.0 0.0 0.00 0.00 0.00 78 1032.9
20260505065504 11 0 0.0 0.0 0.00 0.00 0.00 78 1032.9
20260505065004 11 0 0.0 0.0 0.00 0.00 0.00 77 1032.8
20260505064504 11 0 0.0 0.0 0.00 0.00 0.00 77 1032.8
20260505064004 11 0 0.0 0.0 0.00 0.00 0.00 76 1032.8
20260505063719 11 0 0.0 0.0 0.00 0.00 0.00 76 1032.9
20260505063218 11 0 0.0 0.0 0.00 0.00 0.00 76 1032.9
20260505062718 11 0 0.0 1.6 0.00 0.00 0.00 75 1032.9
20260505062004 12 0 0.0 1.6 0.00 0.00 0.00 75 1032.9
20260505061504 12 0 0.0 0.0 0.00 0.00 0.00 75 1032.9
20260505061217 12 0 0.0 0.0 0.00 0.00 0.00 75 1032.9
20260505060504 12 0 0.0 1.6 0.00 0.00 0.00 74 1032.8
20260505060004 12 257 0.0 4.8 0.00 0.00 0.00 74 1032.8
20260505055504 13 266 1.6 4.8 0.00 0.00 0.00 74 1032.8
20260505055004 13 259 1.6 4.8 0.00 0.00 0.00 74 1032.8
20260505054505 13 250 1.6 4.8 0.00 0.00 0.00 74 1032.8
20260505054005 13 257 1.6 6.4 0.00 0.00 0.00 74 1032.8
20260505053504 13 258 1.6 6.4 0.00 0.00 0.00 73 1032.8